SV1SSL-2 Weather Reports


time (UTC)temp
C
wind
direction
speed
KPH
gust
KPH
rain 1hr
cm
rain 24hr
cm
rain mn
cm
humidity
%
barometer
mb
20260506201805 17 0 0.0 0.0 0.00 0.00 0.00 56 1013.0
20260506201604 17 0 0.0 0.0 0.00 0.00 0.00 56 1013.2
20260506201404 17 0 0.0 0.0 0.00 0.00 0.00 56 1013.1
20260506201204 17 0 0.0 0.0 0.00 0.00 0.00 56 1013.1
20260506201005 17 0 0.0 0.0 0.00 0.00 0.00 55 1013.2
20260506200804 17 135 0.0 1.6 0.00 0.00 0.00 55 1013.1
20260506200605 17 135 0.0 3.2 0.00 0.00 0.00 55 1013.0
20260506200404 17 135 0.0 3.2 0.00 0.00 0.00 55 1013.2
20260506200204 17 135 0.0 3.2 0.00 0.00 0.00 55 1013.2
20260506200005 17 135 0.0 3.2 0.00 0.00 0.00 55 1013.1
20260506195804 17 135 0.0 3.2 0.00 0.00 0.00 55 1013.1
20260506195404 17 135 0.0 3.2 0.00 0.00 0.00 55 1013.1
20260506195204 17 135 0.0 1.6 0.00 0.00 0.00 54 1013.2
20260506195004 17 135 0.0 1.6 0.00 0.00 0.00 54 1013.2
20260506194805 17 135 0.0 1.6 0.00 0.00 0.00 54 1013.1
20260506194604 17 0 0.0 0.0 0.00 0.00 0.00 54 1012.8
20260506194204 17 0 0.0 0.0 0.00 0.00 0.00 54 1013.0
20260506194004 17 0 0.0 0.0 0.00 0.00 0.00 54 1012.9
20260506193604 17 0 0.0 0.0 0.00 0.00 0.00 53 1013.0
20260506193405 17 0 0.0 0.0 0.00 0.00 0.00 53 1013.0
20260506193204 17 135 0.0 3.2 0.00 0.00 0.00 53 1012.8
20260506193005 17 135 0.0 3.2 0.00 0.00 0.00 53 1012.8
20260506192804 18 135 0.0 3.2 0.00 0.00 0.00 53 1012.6
20260506192405 18 135 0.0 3.2 0.00 0.00 0.00 53 1012.8
20260506192204 18 135 0.0 3.2 0.00 0.00 0.00 53 1012.9
20260506192005 18 135 0.0 3.2 0.00 0.00 0.00 52 1012.7
20260506191804 18 135 0.0 3.2 0.00 0.00 0.00 52 1012.7
20260506191604 18 135 0.0 3.2 0.00 0.00 0.00 52 1012.7
20260506191404 18 135 0.0 3.2 0.00 0.00 0.00 51 1012.6
20260506191205 18 135 0.0 3.2 0.00 0.00 0.00 51 1012.8
20260506190804 18 135 0.0 3.2 0.00 0.00 0.00 51 1012.6
20260506190604 18 135 0.0 3.2 0.00 0.00 0.00 50 1012.6
20260506190204 18 135 0.0 3.2 0.00 0.00 0.00 50 1012.7
20260506190005 18 137 0.0 3.2 0.00 0.00 0.00 50 1012.6
20260506185804 18 137 0.0 3.2 0.00 0.00 0.00 50 1012.6
20260506185604 18 136 0.0 3.2 0.00 0.00 0.00 49 1012.7
20260506185404 18 136 0.0 3.2 0.00 0.00 0.00 50 1012.7
20260506185204 18 136 0.0 3.2 0.00 0.00 0.00 49 1012.5
20260506185005 18 135 0.0 3.2 0.00 0.00 0.00 49 1012.4
20260506184804 19 135 0.0 3.2 0.00 0.00 0.00 49 1012.6
20260506184604 19 135 0.0 3.2 0.00 0.00 0.00 49 1012.5
20260506184405 19 135 0.0 3.2 0.00 0.00 0.00 48 1012.6
20260506184204 19 135 0.0 3.2 0.00 0.00 0.00 49 1012.7
20260506184004 19 135 0.0 3.2 0.00 0.00 0.00 49 1012.6
20260506183804 19 135 0.0 3.2 0.00 0.00 0.00 48 1012.5
20260506183604 19 135 0.0 3.2 0.00 0.00 0.00 48 1012.7
20260506183204 19 135 0.0 3.2 0.00 0.00 0.00 48 1012.4
20260506182604 19 135 0.0 3.2 0.00 0.00 0.00 47 1012.3
20260506182404 20 135 0.0 3.2 0.00 0.00 0.00 46 1012.4
20260506182204 20 136 0.0 3.2 0.00 0.00 0.00 46 1012.5
20260506181604 20 144 0.0 3.2 0.00 0.00 0.00 45 1012.2
20260506181404 20 132 0.0 3.2 0.00 0.00 0.00 44 1012.3
20260506181204 20 131 0.0 3.2 0.00 0.00 0.00 43 1012.3
20260506181004 20 120 0.0 3.2 0.00 0.00 0.00 43 1012.2
20260506180804 20 109 0.0 3.2 0.00 0.00 0.00 43 1012.2
20260506180605 20 102 0.0 3.2 0.00 0.00 0.00 43 1012.1
20260506180404 20 105 0.0 3.2 0.00 0.00 0.00 42 1012.1
20260506180204 20 91 0.0 3.2 0.00 0.00 0.00 42 1012.1
20260506180005 20 90 0.0 3.2 0.00 0.00 0.00 42 1012.1
20260506175804 20 90 0.0 3.2 0.00 0.00 0.00 42 1012.1
20260506175604 20 80 0.0 3.2 0.00 0.00 0.00 41 1011.9
20260506175404 20 86 0.0 3.2 0.00 0.00 0.00 41 1012.0
20260506175204 20 89 0.0 3.2 0.00 0.00 0.00 41 1012.1
20260506174805 20 105 0.0 3.2 0.00 0.00 0.00 41 1012.2
20260506174604 20 166 0.0 1.6 0.00 0.00 0.00 41 1012.1
20260506174004 20 154 0.0 3.2 0.00 0.00 0.00 40 1012.0
20260506173805 21 179 0.0 3.2 0.00 0.00 0.00 40 1012.1
20260506173605 21 178 0.0 3.2 0.00 0.00 0.00 40 1012.1
20260506173404 21 201 0.0 3.2 0.00 0.00 0.00 40 1011.8
20260506173005 21 277 0.0 3.2 0.00 0.00 0.00 39 1011.8
20260506172604 21 309 0.0 3.2 0.00 0.00 0.00 38 1011.9
20260506172404 21 309 0.0 3.2 0.00 0.00 0.00 38 1012.0
20260506172204 21 309 0.0 3.2 0.00 0.00 0.00 38 1011.9
20260506171804 21 284 0.0 6.4 0.00 0.00 0.00 37 1011.8
20260506171604 21 272 0.0 6.4 0.00 0.00 0.00 37 1011.7
20260506171004 22 287 1.6 6.4 0.00 0.00 0.00 36 1011.6
20260506170604 22 294 0.0 6.4 0.00 0.00 0.00 35 1011.8
20260506170404 22 297 0.0 6.4 0.00 0.00 0.00 35 1011.7
20260506170205 22 312 0.0 3.2 0.00 0.00 0.00 35 1011.8
20260506170004 22 309 0.0 6.4 0.00 0.00 0.00 35 1011.6
20260506165804 22 241 0.0 6.4 0.00 0.00 0.00 35 1011.7
20260506165604 22 222 1.6 6.4 0.00 0.00 0.00 33 1011.9
20260506165405 22 225 1.6 6.4 0.00 0.00 0.00 33 1011.7
20260506165205 23 218 1.6 6.4 0.00 0.00 0.00 33 1011.7
20260506165005 23 216 1.6 6.4 0.00 0.00 0.00 33 1011.9
20260506164805 23 224 1.6 6.4 0.00 0.00 0.00 33 1011.8
20260506164604 23 237 1.6 6.4 0.00 0.00 0.00 32 1011.8
20260506164204 23 256 3.2 12.9 0.00 0.00 0.00 32 1011.7
20260506164004 23 259 3.2 12.9 0.00 0.00 0.00 32 1011.7
20260506163804 23 261 3.2 12.9 0.00 0.00 0.00 32 1011.8
20260506163604 23 263 4.8 12.9 0.00 0.00 0.00 32 1011.9
20260506163405 23 259 4.8 16.1 0.00 0.00 0.00 32 1011.8
20260506163205 23 259 4.8 16.1 0.00 0.00 0.00 32 1011.8
20260506163005 23 266 4.8 16.1 0.00 0.00 0.00 32 1011.7
20260506162804 23 264 4.8 16.1 0.00 0.00 0.00 32 1011.8
20260506162604 23 263 4.8 16.1 0.00 0.00 0.00 31 1011.5
20260506162004 25 249 4.8 11.3 0.00 0.00 0.00 30 1011.6
20260506161605 25 245 4.8 12.9 0.00 0.00 0.00 30 1011.7
20260506161405 25 243 4.8 12.9 0.00 0.00 0.00 29 1011.6
20260506161205 25 235 4.8 12.9 0.00 0.00 0.00 29 1011.7
20260506161005 25 240 3.2 12.9 0.00 0.00 0.00 29 1011.7
20260506160805 25 240 3.2 11.3 0.00 0.00 0.00 29 1011.8
20260506160604 25 240 3.2 9.7 0.00 0.00 0.00 29 1011.6
20260506160005 25 250 3.2 11.3 0.00 0.00 0.00 29 1011.6
20260506155805 25 251 3.2 11.3 0.00 0.00 0.00 29 1011.5
20260506155605 25 257 3.2 11.3 0.00 0.00 0.00 30 1011.7
20260506155405 25 257 4.8 11.3 0.00 0.00 0.00 30 1011.4
20260506155204 25 257 4.8 12.9 0.00 0.00 0.00 30 1011.7
20260506155005 25 252 4.8 14.5 0.00 0.00 0.00 30 1011.5
20260506154605 25 257 6.4 17.7 0.00 0.00 0.00 30 1011.9
20260506154405 25 258 6.4 17.7 0.00 0.00 0.00 30 1011.7
20260506154204 25 256 4.8 17.7 0.00 0.00 0.00 30 1011.6
20260506153605 26 254 4.8 16.1 0.00 0.00 0.00 29 1011.7
20260506153404 25 262 4.8 16.1 0.00 0.00 0.00 30 1011.8
20260506153205 25 269 4.8 16.1 0.00 0.00 0.00 30 1011.7
20260506153005 25 273 4.8 16.1 0.00 0.00 0.00 30 1011.7
20260506152805 25 278 4.8 16.1 0.00 0.00 0.00 30 1011.8
20260506152604 25 277 4.8 12.9 0.00 0.00 0.00 30 1011.8
20260506152205 26 248 4.8 12.9 0.00 0.00 0.00 31 1011.6
20260506151805 25 249 6.4 17.7 0.00 0.00 0.00 32 1011.7
20260506151605 25 253 8.0 17.7 0.00 0.00 0.00 32 1011.8
20260506151405 25 257 6.4 17.7 0.00 0.00 0.00 32 1011.8
20260506151205 25 262 6.4 17.7 0.00 0.00 0.00 32 1011.9
20260506151005 26 266 6.4 17.7 0.00 0.00 0.00 32 1012.2
20260506150805 25 261 6.4 17.7 0.00 0.00 0.00 32 1011.9
20260506150605 26 268 6.4 17.7 0.00 0.00 0.00 33 1011.8
20260506150405 25 273 8.0 17.7 0.00 0.00 0.00 33 1011.8
20260506150205 25 278 8.0 17.7 0.00 0.00 0.00 32 1011.8
20260506150005 25 282 8.0 17.7 0.00 0.00 0.00 32 1011.7
20260506145805 26 283 6.4 16.1 0.00 0.00 0.00 31 1011.9
20260506145604 26 272 6.4 16.1 0.00 0.00 0.00 31 1011.8
20260506145204 26 263 4.8 12.9 0.00 0.00 0.00 31 1011.8
20260506145004 26 259 4.8 12.9 0.00 0.00 0.00 32 1011.7
20260506144605 26 266 6.4 19.3 0.00 0.00 0.00 33 1011.9
20260506144205 25 260 8.0 19.3 0.00 0.00 0.00 34 1011.7
20260506144004 25 258 8.0 19.3 0.00 0.00 0.00 33 1011.7
20260506143805 25 254 8.0 16.1 0.00 0.00 0.00 33 1011.8
20260506143605 26 268 6.4 16.1 0.00 0.00 0.00 33 1011.7
20260506143405 25 279 6.4 16.1 0.00 0.00 0.00 33 1011.7
20260506143205 26 280 6.4 16.1 0.00 0.00 0.00 33 1011.8
20260506143005 26 284 6.4 16.1 0.00 0.00 0.00 31 1011.7
20260506142805 26 269 4.8 14.5 0.00 0.00 0.00 33 1011.8
20260506142605 26 252 4.8 14.5 0.00 0.00 0.00 32 1011.7
20260506142205 26 245 4.8 14.5 0.00 0.00 0.00 33 1011.9
20260506142005 26 255 4.8 14.5 0.00 0.00 0.00 33 1011.7
20260506141805 26 257 4.8 14.5 0.00 0.00 0.00 33 1011.7
20260506141605 26 255 4.8 14.5 0.00 0.00 0.00 34 1011.8
20260506141405 26 258 6.4 17.7 0.00 0.00 0.00 33 1011.6
20260506141205 26 255 6.4 17.7 0.00 0.00 0.00 33 1011.8
20260506140205 26 233 6.4 17.7 0.00 0.00 0.00 32 1011.7
20260506140010 26 223 6.4 17.7 0.00 0.00 0.00 31 1011.9
20260506135805 26 224 6.4 17.7 0.00 0.00 0.00 30 1011.7
20260506135604 26 234 6.4 22.5 0.00 0.00 0.00 31 1011.7
20260506135205 26 251 6.4 22.5 0.00 0.00 0.00 31 1011.6
20260506135005 26 262 8.0 22.5 0.00 0.00 0.00 31 1011.7
20260506134805 26 261 8.0 22.5 0.00 0.00 0.00 30 1011.6
20260506134605 26 254 8.0 20.9 0.00 0.00 0.00 31 1011.7
20260506134405 26 251 8.0 20.9 0.00 0.00 0.00 29 1012.0
20260506134205 26 248 6.4 20.9 0.00 0.00 0.00 30 1011.9
20260506134005 26 230 6.4 17.7 0.00 0.00 0.00 30 1011.9
20260506133805 26 214 8.0 22.5 0.00 0.00 0.00 31 1011.8
20260506133605 26 216 8.0 22.5 0.00 0.00 0.00 32 1011.7
20260506133405 26 217 8.0 22.5 0.00 0.00 0.00 32 1011.8
20260506133004 26 232 8.0 22.5 0.00 0.00 0.00 32 1011.8
20260506132804 26 255 8.0 17.7 0.00 0.00 0.00 30 1012.0
20260506132605 26 261 8.0 17.7 0.00 0.00 0.00 31 1011.9
20260506132405 26 262 8.0 17.7 0.00 0.00 0.00 31 1012.0
20260506132204 26 256 8.0 17.7 0.00 0.00 0.00 31 1011.9
20260506132005 26 241 8.0 17.7 0.00 0.00 0.00 30 1011.9
20260506131805 26 240 8.0 17.7 0.00 0.00 0.00 29 1011.9
20260506131605 26 242 6.4 17.7 0.00 0.00 0.00 29 1011.9
20260506131204 26 245 8.0 17.7 0.00 0.00 0.00 30 1011.8
20260506130604 26 260 6.4 17.7 0.00 0.00 0.00 29 1011.7
20260506130405 26 258 6.4 17.7 0.00 0.00 0.00 29 1012.0
20260506130204 26 260 6.4 17.7 0.00 0.00 0.00 29 1012.0
20260506130005 26 262 6.4 17.7 0.00 0.00 0.00 28 1011.8
20260506125805 26 260 6.4 17.7 0.00 0.00 0.00 27 1011.8
20260506125604 26 246 6.4 17.7 0.00 0.00 0.00 30 1011.9
20260506125404 26 261 6.4 17.7 0.00 0.00 0.00 30 1011.9
20260506125204 26 262 8.0 17.7 0.00 0.00 0.00 30 1011.9
20260506124805 25 256 9.7 17.7 0.00 0.00 0.00 30 1011.8
20260506124004 26 263 8.0 22.5 0.00 0.00 0.00 29 1011.9
20260506123805 26 266 8.0 22.5 0.00 0.00 0.00 29 1012.0
20260506123605 26 263 8.0 20.9 0.00 0.00 0.00 29 1012.1
20260506123004 26 249 8.0 20.9 0.00 0.00 0.00 29 1012.2
20260506122804 26 244 8.0 20.9 0.00 0.00 0.00 29 1011.9
20260506122605 26 242 8.0 20.9 0.00 0.00 0.00 28 1012.2
20260506122404 25 246 9.7 20.9 0.00 0.00 0.00 28 1011.9
20260506122204 25 254 9.7 20.9 0.00 0.00 0.00 27 1012.3
20260506122004 26 253 9.7 19.3 0.00 0.00 0.00 29 1012.3
20260506121804 25 262 9.7 19.3 0.00 0.00 0.00 29 1012.1
20260506121604 25 267 9.7 19.3 0.00 0.00 0.00 30 1012.3
20260506121404 25 265 9.7 19.3 0.00 0.00 0.00 29 1012.2
20260506121204 25 259 9.7 19.3 0.00 0.00 0.00 29 1012.3
20260506121005 25 258 9.7 19.3 0.00 0.00 0.00 30 1012.2
20260506120804 25 255 9.7 20.9 0.00 0.00 0.00 30 1012.4
20260506120605 25 245 11.3 24.1 0.00 0.00 0.00 30 1012.2
20260506120205 25 234 9.7 24.1 0.00 0.00 0.00 30 1012.1
20260506120005 25 236 9.7 24.1 0.00 0.00 0.00 30 1012.5
20260506115604 26 241 11.3 25.7 0.00 0.00 0.00 31 1012.1
20260506115404 25 236 11.3 25.7 0.00 0.00 0.00 32 1012.3
20260506115204 25 233 11.3 25.7 0.00 0.00 0.00 32 1012.3
20260506115004 25 232 11.3 25.7 0.00 0.00 0.00 31 1012.0
20260506114805 25 232 11.3 25.7 0.00 0.00 0.00 32 1012.4
20260506114404 26 223 9.7 22.5 0.00 0.00 0.00 29 1012.3
20260506114204 25 235 9.7 22.5 0.00 0.00 0.00 30 1012.3
20260506114004 25 230 9.7 22.5 0.00 0.00 0.00 28 1012.5
20260506113604 26 220 9.7 22.5 0.00 0.00 0.00 29 1012.4
20260506113404 26 230 8.0 22.5 0.00 0.00 0.00 30 1012.4
20260506113204 26 235 9.7 22.5 0.00 0.00 0.00 30 1012.4
20260506113004 25 249 9.7 24.1 0.00 0.00 0.00 31 1012.5
20260506112804 25 260 9.7 24.1 0.00 0.00 0.00 33 1012.6
20260506112605 25 257 9.7 24.1 0.00 0.00 0.00 33 1012.5
20260506112205 25 248 8.0 24.1 0.00 0.00 0.00 32 1012.4
20260506111804 25 214 9.7 27.4 0.00 0.00 0.00 33 1012.5
20260506111604 25 210 9.7 27.4 0.00 0.00 0.00 35 1012.5
20260506111404 25 214 9.7 27.4 0.00 0.00 0.00 36 1012.5
20260506111204 25 217 11.3 27.4 0.00 0.00 0.00 36 1012.6
20260506111004 25 210 11.3 24.1 0.00 0.00 0.00 35 1012.4
20260506110804 25 214 9.7 24.1 0.00 0.00 0.00 34 1012.6
20260506110605 25 212 11.3 24.1 0.00 0.00 0.00 35 1012.6
20260506110204 25 210 11.3 25.7 0.00 0.00 0.00 35 1012.5
20260506110004 25 221 9.7 25.7 0.00 0.00 0.00 33 1012.7
20260506105804 25 218 9.7 25.7 0.00 0.00 0.00 35 1012.5
20260506105604 25 225 9.7 25.7 0.00 0.00 0.00 34 1012.5
20260506105404 25 233 9.7 24.1 0.00 0.00 0.00 34 1012.5
20260506105204 25 235 9.7 24.1 0.00 0.00 0.00 35 1012.6
20260506105005 25 239 9.7 24.1 0.00 0.00 0.00 34 1012.6
20260506104805 25 250 9.7 24.1 0.00 0.00 0.00 34 1012.6
20260506104404 25 270 9.7 19.3 0.00 0.00 0.00 34 1012.7
20260506104204 25 269 9.7 19.3 0.00 0.00 0.00 35 1012.6
20260506104005 25 265 9.7 19.3 0.00 0.00 0.00 35 1012.8
20260506103805 25 272 11.3 20.9 0.00 0.00 0.00 35 1012.8
20260506103604 25 269 11.3 20.9 0.00 0.00 0.00 35 1012.8
20260506103404 25 255 9.7 20.9 0.00 0.00 0.00 34 1012.6
20260506103204 25 245 9.7 20.9 0.00 0.00 0.00 34 1012.7
20260506102604 25 203 6.4 16.1 0.00 0.00 0.00 35 1012.7
20260506102405 25 196 6.4 17.7 0.00 0.00 0.00 35 1012.5
20260506102004 25 209 8.0 19.3 0.00 0.00 0.00 36 1012.7
20260506101804 25 218 9.7 19.3 0.00 0.00 0.00 36 1012.5
20260506101404 25 246 9.7 19.3 0.00 0.00 0.00 34 1012.7
20260506101204 25 251 9.7 19.3 0.00 0.00 0.00 35 1012.7
20260506101005 25 259 9.7 17.7 0.00 0.00 0.00 35 1012.8
20260506100805 25 261 8.0 17.7 0.00 0.00 0.00 36 1012.8
20260506100604 25 256 8.0 17.7 0.00 0.00 0.00 36 1012.7
20260506100404 25 245 8.0 16.1 0.00 0.00 0.00 36 1012.7
20260506100005 25 231 6.4 16.1 0.00 0.00 0.00 35 1012.6
20260506095804 25 226 6.4 17.7 0.00 0.00 0.00 36 1012.8
20260506095605 25 234 6.4 17.7 0.00 0.00 0.00 36 1012.9
20260506095204 25 240 8.0 17.7 0.00 0.00 0.00 35 1012.8
20260506095004 25 247 8.0 17.7 0.00 0.00 0.00 34 1012.9
20260506094805 25 253 8.0 17.7 0.00 0.00 0.00 35 1012.8
20260506094604 25 252 8.0 17.7 0.00 0.00 0.00 35 1012.8
20260506094404 25 249 8.0 17.7 0.00 0.00 0.00 34 1012.7
20260506094204 25 248 6.4 17.7 0.00 0.00 0.00 33 1012.9
20260506094004 25 252 6.4 17.7 0.00 0.00 0.00 35 1012.8
20260506093404 25 246 6.4 24.1 0.00 0.00 0.00 35 1013.1
20260506093206 25 249 6.4 24.1 0.00 0.00 0.00 35 1012.8
20260506093004 25 243 8.0 24.1 0.00 0.00 0.00 35 1012.9
20260506092804 25 246 6.4 20.9 0.00 0.00 0.00 36 1012.8
20260506092604 25 242 6.4 20.9 0.00 0.00 0.00 36 1012.6
20260506092404 25 249 6.4 20.9 0.00 0.00 0.00 36 1012.8
20260506092204 24 251 6.4 20.9 0.00 0.00 0.00 36 1012.5
20260506092004 25 254 6.4 20.9 0.00 0.00 0.00 37 1012.8
20260506091804 25 253 6.4 16.1 0.00 0.00 0.00 37 1012.5
20260506091604 24 257 6.4 16.1 0.00 0.00 0.00 37 1012.8
20260506091204 24 261 6.4 17.7 0.00 0.00 0.00 37 1012.9
20260506091004 24 260 4.8 17.7 0.00 0.00 0.00 36 1012.9
20260506090804 24 253 4.8 17.7 0.00 0.00 0.00 37 1012.9
20260506090604 24 251 4.8 17.7 0.00 0.00 0.00 37 1012.9
20260506090404 24 252 4.8 17.7 0.00 0.00 0.00 37 1012.8
20260506090204 24 248 4.8 17.7 0.00 0.00 0.00 36 1012.8
20260506090004 25 255 6.4 16.1 0.00 0.00 0.00 38 1012.8
20260506085804 24 253 6.4 16.1 0.00 0.00 0.00 38 1012.7
20260506085605 24 251 6.4 14.5 0.00 0.00 0.00 37 1012.8
20260506085204 24 243 6.4 14.5 0.00 0.00 0.00 38 1012.7
20260506085004 24 240 6.4 14.5 0.00 0.00 0.00 38 1012.8
20260506084804 24 252 6.4 14.5 0.00 0.00 0.00 38 1012.8
20260506084605 24 254 6.4 12.9 0.00 0.00 0.00 38 1012.8
20260506084404 24 245 6.4 14.5 0.00 0.00 0.00 39 1012.9
20260506083805 24 227 4.8 14.5 0.00 0.00 0.00 37 1012.8
20260506083604 25 228 4.8 14.5 0.00 0.00 0.00 38 1012.8
20260506083404 25 239 4.8 12.9 0.00 0.00 0.00 38 1012.8
20260506083204 24 238 4.8 12.9 0.00 0.00 0.00 38 1012.7
20260506083004 24 229 4.8 12.9 0.00 0.00 0.00 39 1012.8
20260506082805 24 220 4.8 12.9 0.00 0.00 0.00 39 1012.6
20260506082404 24 217 6.4 17.7 0.00 0.00 0.00 39 1012.8
20260506082204 24 231 6.4 17.7 0.00 0.00 0.00 38 1012.6
20260506082004 24 236 6.4 17.7 0.00 0.00 0.00 39 1012.6
20260506081805 24 241 6.4 17.7 0.00 0.00 0.00 39 1012.8
20260506081604 24 240 4.8 14.5 0.00 0.00 0.00 39 1012.9
20260506081404 24 243 4.8 14.5 0.00 0.00 0.00 39 1012.9
20260506081204 24 239 6.4 14.5 0.00 0.00 0.00 39 1012.7
20260506080804 23 250 4.8 14.5 0.00 0.00 0.00 38 1012.8
20260506080404 24 263 4.8 14.5 0.00 0.00 0.00 37 1012.7
20260506080204 24 266 4.8 12.9 0.00 0.00 0.00 37 1012.7
20260506073405 23 216 4.8 12.9 0.00 0.00 0.00 38 1012.5
20260506073204 23 216 4.8 12.9 0.00 0.00 0.00 38 1012.7
20260506072805 23 222 6.4 12.9 0.00 0.00 0.00 38 1012.5
20260506072604 23 234 6.4 12.9 0.00 0.00 0.00 39 1012.3
20260506072405 23 249 4.8 12.9 0.00 0.00 0.00 40 1012.4
20260506072204 23 258 4.8 12.9 0.00 0.00 0.00 40 1012.5
20260506072004 22 257 6.4 12.9 0.00 0.00 0.00 39 1012.4
20260506071804 22 244 6.4 12.9 0.00 0.00 0.00 39 1012.6
20260506071605 22 237 6.4 12.9 0.00 0.00 0.00 39 1012.3
20260506071404 22 229 6.4 12.9 0.00 0.00 0.00 39 1012.5
20260506071205 22 219 6.4 12.9 0.00 0.00 0.00 39 1012.4
20260506071004 23 219 6.4 12.9 0.00 0.00 0.00 39 1012.5
20260506070804 23 226 6.4 12.9 0.00 0.00 0.00 39 1012.6
20260506070605 23 230 4.8 12.9 0.00 0.00 0.00 39 1012.3
20260506070404 23 239 4.8 12.9 0.00 0.00 0.00 38 1012.3
20260506070204 23 252 3.2 9.7 0.00 0.00 0.00 38 1012.3
20260506062407 22 223 3.2 8.0 0.00 0.00 0.00 42 1012.5
20260506062205 22 216 3.2 8.0 0.00 0.00 0.00 43 1012.6
20260506062005 22 218 3.2 9.7 0.00 0.00 0.00 42 1012.7
20260506061804 22 227 3.2 9.7 0.00 0.00 0.00 42 1012.8
20260506061604 22 217 3.2 9.7 0.00 0.00 0.00 42 1012.7
20260506061404 22 219 3.2 9.7 0.00 0.00 0.00 43 1012.6
20260506061205 22 227 3.2 9.7 0.00 0.00 0.00 43 1012.8
20260506061004 22 222 3.2 9.7 0.00 0.00 0.00 42 1012.7
20260506060804 22 209 1.6 8.0 0.00 0.00 0.00 44 1012.6
20260506060605 22 212 1.6 6.4 0.00 0.00 0.00 44 1012.7
20260506060404 22 198 1.6 6.4 0.00 0.00 0.00 44 1012.6
20260506051204 21 90 0.0 4.8 0.00 0.00 0.00 54 1012.2
20260506050806 20 130 0.0 3.2 0.00 0.00 0.00 61 1012.3
20260506050606 19 133 0.0 3.2 0.00 0.00 0.00 61 1012.2
20260506050204 18 130 0.0 3.2 0.00 0.00 0.00 63 1012.2
20260506045004 17 181 0.0 3.2 0.00 0.00 0.00 63 1012.0
20260506044805 16 181 0.0 3.2 0.00 0.00 0.00 63 1012.0
20260506044404 16 181 0.0 3.2 0.00 0.00 0.00 64 1012.0
20260506044205 16 181 0.0 3.2 0.00 0.00 0.00 65 1012.2
20260506044004 16 181 0.0 3.2 0.00 0.00 0.00 65 1012.2
20260506043804 16 181 0.0 3.2 0.00 0.00 0.00 65 1012.3
20260506043604 16 169 0.0 3.2 0.00 0.00 0.00 65 1012.3
20260506043404 16 168 0.0 3.2 0.00 0.00 0.00 65 1012.1
20260506043204 16 166 0.0 3.2 0.00 0.00 0.00 65 1012.0
20260506042804 16 156 0.0 3.2 0.00 0.00 0.00 66 1012.0
20260506042404 16 164 0.0 3.2 0.00 0.00 0.00 66 1012.2
20260506042204 16 166 0.0 3.2 0.00 0.00 0.00 66 1012.1
20260506042004 16 174 0.0 3.2 0.00 0.00 0.00 66 1012.2
20260506041804 16 192 0.0 3.2 0.00 0.00 0.00 66 1012.1
20260506041404 15 184 0.0 3.2 0.00 0.00 0.00 67 1012.2
20260506041205 15 176 0.0 3.2 0.00 0.00 0.00 67 1012.1
20260506040804 15 135 0.0 3.2 0.00 0.00 0.00 67 1011.9
20260506040604 15 135 0.0 3.2 0.00 0.00 0.00 68 1011.9
20260506040404 15 135 0.0 3.2 0.00 0.00 0.00 68 1011.9
20260506040204 15 142 0.0 3.2 0.00 0.00 0.00 68 1011.9
20260506040004 15 152 0.0 3.2 0.00 0.00 0.00 68 1011.9
20260506035804 15 156 0.0 3.2 0.00 0.00 0.00 68 1011.9
20260506035404 15 169 0.0 3.2 0.00 0.00 0.00 68 1011.8
20260506035204 15 163 0.0 3.2 0.00 0.00 0.00 68 1012.0
20260506035004 15 157 0.0 3.2 0.00 0.00 0.00 68 1011.7
20260506034805 15 160 0.0 3.2 0.00 0.00 0.00 68 1011.7
20260506034605 15 168 0.0 3.2 0.00 0.00 0.00 68 1011.9
20260506034405 15 166 0.0 3.2 0.00 0.00 0.00 68 1011.7
20260506034205 15 181 0.0 3.2 0.00 0.00 0.00 68 1011.6
20260506034004 15 177 0.0 3.2 0.00 0.00 0.00 68 1011.7
20260506033804 15 173 0.0 3.2 0.00 0.00 0.00 68 1011.7
20260506033604 15 174 0.0 3.2 0.00 0.00 0.00 68 1011.6
20260506033204 15 172 0.0 4.8 0.00 0.00 0.00 68 1011.6
20260506032804 15 195 1.6 6.4 0.00 0.00 0.00 69 1011.6
20260506032604 15 191 1.6 9.7 0.00 0.00 0.00 69 1011.5
20260506032404 15 193 1.6 9.7 0.00 0.00 0.00 69 1011.5
20260506032205 15 194 1.6 9.7 0.00 0.00 0.00 70 1011.4
20260506032004 15 177 0.0 9.7 0.00 0.00 0.00 70 1011.5
20260506031605 15 173 0.0 4.8 0.00 0.00 0.00 71 1011.5
20260506031404 15 175 0.0 6.4 0.00 0.00 0.00 71 1011.4
20260506031204 15 181 1.6 6.4 0.00 0.00 0.00 70 1011.8
20260506031004 15 181 1.6 6.4 0.00 0.00 0.00 70 1011.5
20260506030804 15 176 3.2 6.4 0.00 0.00 0.00 70 1011.6
20260506030404 15 176 1.6 6.4 0.00 0.00 0.00 71 1011.5
20260506030204 15 175 1.6 6.4 0.00 0.00 0.00 71 1011.3
20260506030004 15 174 1.6 6.4 0.00 0.00 0.00 71 1011.5
20260506025804 15 181 0.0 4.8 0.00 0.00 0.00 71 1011.4
20260506025604 15 182 0.0 4.8 0.00 0.00 0.00 71 1011.5
20260506025204 15 187 0.0 4.8 0.00 0.00 0.00 71 1011.2
20260506025005 15 179 0.0 4.8 0.00 0.00 0.00 70 1011.3
20260506024804 15 174 0.0 4.8 0.00 0.00 0.00 70 1011.4
20260506024604 15 164 0.0 4.8 0.00 0.00 0.00 71 1011.4
20260506024204 15 135 0.0 3.2 0.00 0.00 0.00 70 1011.5
20260506024004 15 149 0.0 3.2 0.00 0.00 0.00 70 1011.7
20260506023804 15 153 0.0 4.8 0.00 0.00 0.00 70 1011.5
20260506023404 15 158 0.0 6.4 0.00 0.00 0.00 71 1011.8
20260506023204 15 157 0.0 6.4 0.00 0.00 0.00 71 1011.6
20260506022805 15 159 0.0 6.4 0.00 0.00 0.00 71 1011.4
20260506022605 15 158 0.0 3.2 0.00 0.00 0.00 71 1011.5
20260506022404 15 166 0.0 3.2 0.00 0.00 0.00 71 1011.4
20260506022204 15 177 0.0 3.2 0.00 0.00 0.00 70 1011.8
20260506022004 15 176 0.0 3.2 0.00 0.00 0.00 70 1011.7
20260506021804 15 171 0.0 3.2 0.00 0.00 0.00 70 1011.6
20260506021604 15 179 0.0 4.8 0.00 0.00 0.00 70 1011.7
20260506021404 15 193 0.0 4.8 0.00 0.00 0.00 70 1011.6
20260506021204 15 197 0.0 4.8 0.00 0.00 0.00 70 1011.6
20260506021004 15 199 0.0 4.8 0.00 0.00 0.00 70 1011.6
20260506020804 15 199 1.6 4.8 0.00 0.00 0.00 70 1011.8
20260506020604 15 199 1.6 4.8 0.00 0.00 0.00 70 1011.7
20260506020404 15 200 0.0 4.8 0.00 0.00 0.00 70 1011.5
20260506020205 15 198 0.0 4.8 0.00 0.00 0.00 70 1011.7
20260506015804 15 191 0.0 4.8 0.00 0.00 0.00 70 1011.8
20260506015604 15 191 0.0 4.8 0.00 0.00 0.00 70 1011.6
20260506015404 15 181 0.0 4.8 0.00 0.00 0.00 70 1011.7
20260506015204 15 181 0.0 4.8 0.00 0.00 0.00 70 1011.9
20260506015005 15 181 0.0 4.8 0.00 0.00 0.00 70 1011.7
20260506014604 15 194 1.6 6.4 0.00 0.00 0.00 70 1011.8
20260506014404 15 193 1.6 6.4 0.00 0.00 0.00 70 1011.8
20260506014204 15 193 1.6 6.4 0.00 0.00 0.00 70 1011.8
20260506014005 15 194 1.6 6.4 0.00 0.00 0.00 70 1011.6
20260506013805 15 190 0.0 6.4 0.00 0.00 0.00 70 1011.8
20260506013604 15 176 0.0 4.8 0.00 0.00 0.00 70 1011.6
20260506013404 15 175 0.0 3.2 0.00 0.00 0.00 70 1011.7
20260506012804 15 172 0.0 3.2 0.00 0.00 0.00 69 1011.8
20260506012605 15 175 0.0 3.2 0.00 0.00 0.00 69 1011.8
20260506012404 15 181 0.0 3.2 0.00 0.00 0.00 69 1011.7
20260506012204 15 185 0.0 3.2 0.00 0.00 0.00 69 1011.8
20260506012004 15 186 0.0 3.2 0.00 0.00 0.00 69 1011.7
20260506011404 15 186 0.0 4.8 0.00 0.00 0.00 68 1011.6
20260506011204 15 183 0.0 4.8 0.00 0.00 0.00 68 1011.6
20260506011004 15 181 0.0 4.8 0.00 0.00 0.00 69 1011.6
20260506010804 15 181 0.0 3.2 0.00 0.00 0.00 69 1011.6
20260506010605 15 181 0.0 3.2 0.00 0.00 0.00 68 1011.6
20260506010404 15 181 0.0 4.8 0.00 0.00 0.00 68 1011.8
20260506010204 15 183 0.0 4.8 0.00 0.00 0.00 68 1011.8
20260506010004 15 187 1.6 4.8 0.00 0.00 0.00 68 1011.8
20260506005605 15 188 1.6 4.8 0.00 0.00 0.00 68 1011.6
20260506005204 15 189 1.6 4.8 0.00 0.00 0.00 68 1011.8
20260506005004 15 185 1.6 4.8 0.00 0.00 0.00 68 1011.8
20260506004804 15 186 1.6 4.8 0.00 0.00 0.00 69 1011.7
20260506004604 16 183 1.6 4.8 0.00 0.00 0.00 68 1011.8
20260506004405 15 181 1.6 4.8 0.00 0.00 0.00 68 1012.0
20260506004204 15 181 1.6 4.8 0.00 0.00 0.00 68 1011.9
20260506004004 15 181 0.0 4.8 0.00 0.00 0.00 68 1011.8
20260506003604 16 183 1.6 6.4 0.00 0.00 0.00 68 1011.9
20260506003005 16 196 3.2 6.4 0.00 0.00 0.00 69 1011.8
20260506002805 16 200 3.2 6.4 0.00 0.00 0.00 69 1011.9
20260506002604 15 207 3.2 6.4 0.00 0.00 0.00 69 1011.9
20260506002404 16 206 3.2 8.0 0.00 0.00 0.00 69 1012.0
20260506002205 16 214 3.2 8.0 0.00 0.00 0.00 68 1011.9
20260506002005 16 221 3.2 8.0 0.00 0.00 0.00 68 1011.8
20260506001804 16 217 3.2 8.0 0.00 0.00 0.00 68 1011.8
20260506001405 16 216 3.2 8.0 0.00 0.00 0.00 68 1011.8
20260506001205 16 222 3.2 8.0 0.00 0.00 0.00 68 1011.6
20260506001005 16 223 3.2 6.4 0.00 0.00 0.00 68 1011.8
20260506000605 16 247 3.2 11.3 0.00 0.00 0.00 68 1011.9
20260506000404 16 242 3.2 11.3 0.00 0.00 0.00 68 1011.8
20260506000205 16 240 3.2 11.3 0.00 0.00 0.00 68 1011.7
20260506000005 16 242 3.2 11.3 0.00 0.00 0.00 68 1011.7
20260505235608 16 234 3.2 6.4 0.00 0.00 0.00 67 1011.8
20260505235404 16 237 3.2 6.4 0.00 0.00 0.00 67 1011.9
20260505235204 16 238 3.2 6.4 0.00 0.00 0.00 67 1012.0
20260505235005 16 235 3.2 6.4 0.00 0.00 0.00 67 1011.8
20260505234604 16 239 1.6 6.4 0.00 0.00 0.00 66 1011.8
20260505234405 16 236 1.6 6.4 0.00 0.00 0.00 67 1011.9
20260505234204 16 238 3.2 6.4 0.00 0.00 0.00 67 1012.1
20260505234005 16 236 3.2 8.0 0.00 0.00 0.00 66 1011.8
20260505233804 16 237 3.2 9.7 0.00 0.00 0.00 66 1011.9
20260505233604 16 231 3.2 9.7 0.00 0.00 0.00 66 1011.9
20260505233204 16 231 3.2 9.7 0.00 0.00 0.00 67 1011.7
20260505232804 16 208 3.2 6.4 0.00 0.00 0.00 67 1012.0
20260505232608 16 204 1.6 6.4 0.00 0.00 0.00 67 1012.0
20260505232405 16 202 1.6 6.4 0.00 0.00 0.00 68 1012.0
20260505232204 16 196 3.2 6.4 0.00 0.00 0.00 67 1012.0
20260505232004 15 208 3.2 6.4 0.00 0.00 0.00 68 1012.0
20260505231804 16 209 3.2 6.4 0.00 0.00 0.00 68 1012.1
20260505231604 16 223 3.2 6.4 0.00 0.00 0.00 68 1012.1
20260505231404 16 236 3.2 6.4 0.00 0.00 0.00 68 1011.9
20260505231205 16 242 3.2 6.4 0.00 0.00 0.00 69 1012.0
20260505231004 16 244 3.2 6.4 0.00 0.00 0.00 69 1012.2
20260505230805 15 246 4.8 8.0 0.00 0.00 0.00 70 1012.1
20260505230604 15 239 4.8 8.0 0.00 0.00 0.00 72 1012.0
20260505230404 15 227 4.8 8.0 0.00 0.00 0.00 72 1012.1
20260505230204 15 218 3.2 8.0 0.00 0.00 0.00 72 1012.0
20260505230004 15 206 3.2 8.0 0.00 0.00 0.00 72 1011.9
20260505225605 15 181 1.6 6.4 0.00 0.00 0.00 75 1012.1
20260505225404 15 181 0.0 4.8 0.00 0.00 0.00 76 1012.4
20260505225204 15 181 0.0 1.6 0.00 0.00 0.00 76 1012.0
20260505225005 15 181 0.0 3.2 0.00 0.00 0.00 76 1011.9
20260505224804 15 181 0.0 3.2 0.00 0.00 0.00 76 1012.1
20260505224604 15 181 0.0 3.2 0.00 0.00 0.00 76 1012.2
20260505224404 15 181 0.0 3.2 0.00 0.00 0.00 76 1012.4
20260505224004 15 181 0.0 1.6 0.00 0.00 0.00 75 1012.0
20260505223604 15 181 0.0 1.6 0.00 0.00 0.00 75 1012.2
20260505223405 15 181 0.0 1.6 0.00 0.00 0.00 75 1012.2
20260505223204 15 181 0.0 1.6 0.00 0.00 0.00 75 1012.1
20260505223005 15 181 0.0 1.6 0.00 0.00 0.00 75 1012.2
20260505222806 15 0 0.0 0.0 0.00 0.00 0.00 75 1012.4
20260505222608 15 0 0.0 0.0 0.00 0.00 0.00 75 1012.2
20260505222204 15 0 0.0 0.0 0.00 0.00 0.00 75 1012.3
20260505222004 15 0 0.0 0.0 0.00 0.00 0.00 75 1012.2
20260505221804 15 0 0.0 0.0 0.00 0.00 0.00 75 1012.4
20260505221404 15 0 0.0 0.0 0.00 0.00 0.00 74 1012.2
20260505221004 15 0 0.0 0.0 0.00 0.00 0.00 74 1012.2
20260505220804 15 0 0.0 0.0 0.00 0.00 0.00 74 1012.2
20260505220604 15 181 0.0 3.2 0.00 0.00 0.00 74 1012.2
20260505220204 15 168 0.0 3.2 0.00 0.00 0.00 74 1012.0
20260505215804 15 168 0.0 3.2 0.00 0.00 0.00 74 1012.2
20260505215604 15 160 0.0 3.2 0.00 0.00 0.00 73 1012.4
20260505215404 15 135 0.0 3.2 0.00 0.00 0.00 73 1012.2
20260505215204 15 135 0.0 3.2 0.00 0.00 0.00 73 1012.0
20260505215004 15 135 0.0 3.2 0.00 0.00 0.00 73 1012.1
20260505214804 15 135 0.0 3.2 0.00 0.00 0.00 73 1012.1
20260505214604 15 135 0.0 3.2 0.00 0.00 0.00 74 1012.3
20260505214404 16 135 0.0 3.2 0.00 0.00 0.00 74 1012.2
20260505214204 15 135 0.0 3.2 0.00 0.00 0.00 74 1012.3
20260505213604 15 144 0.0 3.2 0.00 0.00 0.00 74 1012.3
20260505213404 15 150 0.0 3.2 0.00 0.00 0.00 74 1012.2
20260505213204 15 151 0.0 3.2 0.00 0.00 0.00 74 1012.1
20260505213004 15 158 0.0 3.2 0.00 0.00 0.00 73 1012.1
20260505212804 15 159 0.0 3.2 0.00 0.00 0.00 73 1012.1
20260505212604 15 157 0.0 3.2 0.00 0.00 0.00 74 1012.3
20260505212404 15 164 0.0 3.2 0.00 0.00 0.00 73 1012.2
20260505212204 15 178 0.0 3.2 0.00 0.00 0.00 73 1012.1
20260505211404 15 181 0.0 3.2 0.00 0.00 0.00 72 1012.4
20260505211204 15 0 0.0 0.0 0.00 0.00 0.00 71 1012.4
20260505211004 15 0 0.0 0.0 0.00 0.00 0.00 72 1012.4
20260505210804 15 181 0.0 3.2 0.00 0.00 0.00 70 1012.3
20260505210404 15 181 0.0 3.2 0.00 0.00 0.00 70 1012.3
20260505210204 15 181 0.0 3.2 0.00 0.00 0.00 70 1012.3
20260505205804 15 181 0.0 1.6 0.00 0.00 0.00 70 1012.3
20260505205604 15 181 0.0 1.6 0.00 0.00 0.00 70 1012.3
20260505205404 15 181 0.0 1.6 0.00 0.00 0.00 70 1012.2
20260505205004 15 181 0.0 3.2 0.00 0.00 0.00 70 1012.1
20260505204804 15 181 0.0 3.2 0.00 0.00 0.00 70 1012.3
20260505204604 15 181 0.0 3.2 0.00 0.00 0.00 70 1012.4
20260505204204 15 181 0.0 1.6 0.00 0.00 0.00 70 1012.3
20260505204005 16 181 0.0 3.2 0.00 0.00 0.00 70 1012.2
20260505203804 16 181 0.0 3.2 0.00 0.00 0.00 70 1012.3
20260505203604 16 181 0.0 3.2 0.00 0.00 0.00 70 1012.3
20260505203404 16 181 0.0 3.2 0.00 0.00 0.00 70 1012.3
20260505203204 16 181 0.0 3.2 0.00 0.00 0.00 70 1012.6
20260505203005 16 181 0.0 1.6 0.00 0.00 0.00 70 1012.7
20260505202804 16 181 0.0 1.6 0.00 0.00 0.00 70 1012.4
20260505202604 16 181 0.0 1.6 0.00 0.00 0.00 70 1012.4
20260505202205 16 181 0.0 1.6 0.00 0.00 0.00 70 1012.4
20260505202004 16 181 0.0 1.6 0.00 0.00 0.00 70 1012.3